Location: �clusier
(49.9361°N, 2.7869°E)
Time: 08:16:44
(UTC+00:00)

Cosmos 389 Rocket - Pass Details

Date: 16 June 2021
Orbit: 440 x 471 km, 81.1° (Epoch: 31 July)

Event Time Altitude Azimuth Distance (km) Brightness Sun altitude
Rises 23:31:06 0° 334° (NNW) 2,446 7.4 -16.6°
Reaches altitude 10° 23:33:35 10° 315° (NW) 1,571 5.9 -16.6°
Maximum altitude 23:36:02 19° 270° (W) 1,142 4.5 -16.6°
Enters shadow 23:37:13 16° 243° (WSW) 1,256 4.4 -16.6°
